[[{"header":{"parameterUnit":"m.s-1","parameterCategory":1,"la1":30.2992,"la2":30.254,"lo1":-89.0895,"lo2":-89.0443,"dy":0.0025,"dx":0.0025,"nx":19,"ny":19,"refTime":"2026-04-28T03:00:00:Z","depth":0,"parameterNumber":2,"parameterNumberName":"U-component_of_WINDS"},"data":[0,0,0,3.1413,3.1416,3.1538,3.1538,3.17,3.1702,0,0,0,0,0,0,0,0,0,0,0,3.1382,3.1383,3.1413,3.1416,3.1538,3.1538,3.17,3.1702,0,0,0,0,0,0,0,0,0,0,0,3.1381,3.1383,3.1384,3.1417,3.1537,3.1538,3.17,3.1606,0,0,0,0,0,0,0,0,0,0,3.1486,3.1462,3.1382,3.1384,3.1417,3.1537,3.1538,3.1601,3.1611,3.1649,0,3.1683,0,3.1695,3.1713,3.1714,0,0,0,3.1413,3.1453,3.1482,3.1385,3.1419,3.1537,3.1482,3.1607,3.1619,3.1663,3.1685,3.1691,3.1698,3.1714,3.1715,3.194,3.1941,0,0,3.1406,3.1406,3.1474,3.149,3.1472,3.1478,3.1486,3.1614,3.1638,3.1686,3.1695,3.17,3.1716,3.1717,3.1939,3.1941,0,0,0,3.1389,3.1402,3.1427,3.1483,3.1505,3.1482,3.149,3.1633,3.1641,3.1696,3.1702,3.1717,3.1719,3.1938,3.194,3.1999,0,0,0,3.1385,3.1392,3.1424,3.1425,3.1502,3.157,3.1507,3.1632,3.1647,3.1702,3.1717,3.172,3.1936,3.1939,3.1995,3.2027,0,0,0,3.1372,3.139,3.1409,3.1425,3.1477,3.1568,3.1584,3.1635,3.1651,3.1714,3.1721,3.1936,3.1938,3.1991,3.2021,3.2086,0,0,0,3.1359,3.1461,3.141,3.1526,3.1476,3.1604,3.1583,3.1678,3.174,3.1717,3.1937,3.1939,3.1989,3.2017,3.2082,3.2141,3.2166,0,0,3.1488,3.1476,3.1545,3.1503,3.164,3.1586,3.1731,3.1788,3.1794,3.1891,3.1897,3.1996,3.202,3.2085,3.2305,3.2325,0,0,0,3.1586,3.1635,3.1671,3.173,3.1775,3.1817,3.1851,3.1871,3.1954,3.1844,3.2038,3.2052,3.209,3.2118,3.2135,3.2168,3.1953,3.1952,3.1952,3.1768,3.177,3.1883,3.19,3.1957,3.1991,3.2037,3.2071,3.2056,3.2102,3.2131,3.2264,3.2297,3.2309,3.2343,3.2162,3.2163,3.2163,3.2163,3.1957,3.2026,3.2004,3.2106,3.2107,3.2192,3.2229,3.2216,3.2295,3.2242,3.2276,3.2218,3.2331,3.2361,3.2168,3.2167,3.2166,3.2166,3.2165,3.2076,3.2109,3.2133,3.2218,3.2282,3.2295,3.2373,3.2371,3.237,3.2404,3.2434,3.2433,3.2431,3.2418,3.2419,3.2419,3.2419,3.242,3.242,3.219,3.2215,3.228,3.2337,3.2374,3.2422,3.2457,3.2493,3.2533,3.2526,3.2526,3.2507,3.2342,3.23,3.2427,3.2426,3.2425,3.2424,3.2424,3.238,3.2337,3.2438,3.2475,3.2541,3.2605,3.2602,3.2676,3.2706,3.2744,3.2717,3.2596,3.2584,3.2571,3.2536,3.2717,3.2717,3.2717,3.2717,3.2481,3.2475,3.2577,3.2636,3.2694,3.2702,3.2815,3.2843,3.2865,3.2883,3.2857,3.2811,3.2797,3.2794,3.2776,3.2743,3.2973,3.2973,3.2973,3.2597,3.2597,3.2694,3.2714,3.2766,3.2809,3.2916,3.2984,3.3,3.2984,3.2897,3.2887,3.2813,3.2788,3.277,3.2742,3.2682,0,0]},{"header":{"parameterUnit":"m.s-1","parameterCategory":1,"la1":30.2992,"la2":30.254,"lo1":-89.0895,"lo2":-89.0443,"dy":0.0025,"dx":0.0025,"nx":19,"ny":19,"refTime":"2026-04-28T03:00:00:Z","depth":0,"parameterNumber":3,"parameterNumberName":"V-component_of_WINDS"},"data":[0,0,0,3.289,3.2892,3.2988,3.2989,3.3109,3.311,0,0,0,0,0,0,0,0,0,0,0,3.2863,3.2864,3.289,3.2893,3.2988,3.2989,3.3109,3.311,0,0,0,0,0,0,0,0,0,0,0,3.2863,3.2864,3.2865,3.2893,3.2988,3.2989,3.3109,3.3036,0,0,0,0,0,0,0,0,0,0,3.2944,3.292,3.2863,3.2865,3.2894,3.2988,3.2989,3.3033,3.3041,3.3066,0,3.309,0,3.3102,3.3118,3.3119,0,0,0,3.2891,3.2913,3.2939,3.2865,3.2894,3.2988,3.2945,3.3037,3.3046,3.3076,3.3092,3.3096,3.3104,3.3119,3.312,3.3274,3.3274,0,0,3.2886,3.288,3.2932,3.2945,3.2932,3.2942,3.2948,3.3043,3.3058,3.3092,3.3099,3.3106,3.312,3.3121,3.3273,3.3274,0,0,0,3.2872,3.2876,3.2899,3.294,3.2957,3.2944,3.2951,3.3054,3.3062,3.31,3.3108,3.3121,3.3122,3.3272,3.3273,3.3309,0,0,0,3.2868,3.2868,3.2897,3.2895,3.2956,3.3007,3.296,3.3056,3.3067,3.3107,3.3121,3.3123,3.3271,3.3273,3.3306,3.3327,0,0,0,3.2856,3.2867,3.2881,3.2894,3.2936,3.3006,3.302,3.3058,3.3071,3.3119,3.3124,3.3271,3.3272,3.3304,3.3323,3.3367,0,0,0,3.2841,3.291,3.2882,3.2961,3.2935,3.3028,3.3019,3.3088,3.3133,3.3121,3.3271,3.3273,3.3303,3.332,3.3364,3.3405,3.3421,0,0,3.2924,3.292,3.2967,3.2945,3.3042,3.3014,3.3116,3.316,3.3168,3.3237,3.3241,3.3307,3.3322,3.3367,3.3511,3.3523,0,0,0,3.2991,3.3025,3.3052,3.3097,3.3134,3.3168,3.3199,3.3215,3.3275,3.3204,3.3335,3.3344,3.337,3.3389,3.34,3.3424,3.3282,3.3281,3.3281,3.3101,3.311,3.3189,3.321,3.3253,3.3285,3.332,3.3347,3.3341,3.3372,3.3393,3.348,3.3502,3.3511,3.3535,3.3414,3.3414,3.3414,3.3414,3.3225,3.3275,3.3268,3.3343,3.3351,3.3413,3.3446,3.344,3.3497,3.3464,3.3488,3.3452,3.3524,3.3546,3.3417,3.3417,3.3416,3.3416,3.3416,3.3298,3.3324,3.3345,3.3412,3.3461,3.3478,3.3535,3.354,3.3544,3.3567,3.359,3.359,3.3591,3.3578,3.3578,3.3579,3.3579,3.3579,3.3579,3.3367,3.339,3.3439,3.3486,3.3516,3.3556,3.3589,3.3617,3.365,3.3648,3.3649,3.364,3.353,3.3503,3.3584,3.3583,3.3582,3.3582,3.3582,3.3491,3.3464,3.354,3.357,3.3626,3.3676,3.3681,3.374,3.3764,3.3792,3.3779,3.3696,3.369,3.3682,3.3659,3.3776,3.3776,3.3776,3.3776,3.3554,3.3552,3.3632,3.368,3.3727,3.3741,3.3825,3.3851,3.3873,3.3888,3.3872,3.3842,3.3833,3.3833,3.3821,3.38,3.395,3.395,3.3951,3.3631,3.3634,3.3706,3.3731,3.3776,3.3813,3.3893,3.3947,3.3966,3.3958,3.3901,3.3893,3.3845,3.3829,3.382,3.3802,3.3764,0,0]}]]